Simultaneous Nadir Overpasses (SNOs) Predictions

Prediction of SNOs between NOAA-20 and TERRA Satellite Orbit:

Table of predicted SNOs for the next 14.0 days since TLE Epoch: 2/15/2025
Index Date (NOAA-20) Time (NOAA-20) Lat,Lon (NOAA-20) SZA (NOAA-20 ) Date (TERRA) Time (TERRA) Lat,Lon (TERRA) SZA (TERRA ) Distance(km) Time Diff (sec)
1 02/17/2025 06:06:41 -73.28,-101.37 94.51 02/17/2025 06:07:14 -73.25,-101.33 94.54 2.93 33
2 02/17/2025 06:57:25 73.17, 66.16 85.37 02/17/2025 06:56:34 73.15, 66.15 85.36 2.05 51
3 02/19/2025 16:28:22 73.29, -76.83 84.65 02/19/2025 16:29:31 73.31, -76.84 84.64 1.55 69
4 02/19/2025 17:19:04 -73.20, 90.69 95.47 02/19/2025 17:18:54 -73.21, 90.64 95.45 2.12 10
5 02/22/2025 03:40:46 73.28, 115.11 83.74 02/22/2025 03:41:10 73.28, 115.16 83.73 1.82 24
6 02/22/2025 04:31:28 -73.19, -77.38 96.38 02/22/2025 04:30:33 -73.19, -77.37 96.37 0.49 55
7 02/24/2025 14:02:25 -73.32, 139.60 97.12 02/24/2025 14:03:29 -73.32, 139.60 97.14 0.66 64
8 02/24/2025 14:53:09 73.22, -52.87 82.76 02/24/2025 14:52:49 73.22, -52.91 82.77 1.59 20
9 02/27/2025 01:14:48 -73.27, -28.39 98.10 02/27/2025 01:15:07 -73.27, -28.45 98.11 1.85 19



Historial Predications of SNOs between NOAA-20 and TERRA
